sat.trackr.live / text

‹ back to catalog

IRIDIUM 136

NORAD 42962 · 2017-061H

PAYLOAD ACTIVE UNKNOWN

§ Identity

Operator
Country
US
Launch date
2017-10-09
Launch site
AFWTR
Launch vehicle
Mass (kg)
RCS (m²)

Purposes: comms

External: N2YO · Heavens-Above · Gunter

§ Orbital elements

Epoch: 2026-05-25T03:50:38.588640Z

Period
100.40 min
Inclination
86.3990°
Eccentricity
0.0002289
Mean motion
14.34217272 rev/d
Perigee alt
776.0 km
Apogee alt
779.3 km
Semi-major
7,155.8 km
B*
2.1599e-5
RAAN
34.8819°
Arg perigee
84.1947°
Mean anomaly
275.9510°
Rev number
45,153

§ Raw data

IRIDIUM 1361 42962U 17061H   26145.16016885  .00000080  00000+0  21599-4 0  99982 42962  86.3990  34.8819 0002289  84.1947 275.9510 14.34217272451537

JSON: /api/v1/satellites/42962 · /tle

For live sub-satellite position, see the globe view (requires WebGL).

§ Visibility from observer

Set your observer location to see the next 7 days of passes ≥ 10°. The values pass through the URL so the page stays shareable.

No JS? Fill the form by hand. The geolocation button needs JavaScript.